Location: Six Mile Lake
(44.9000°N, 79.7170°W)
Time: 10:20:30
(UTC-04:00)

NOAA 18 - Pass Details

Date: 01 July 2022
Orbit: 839 x 861 km, 98.9° (Epoch: 19 August)

Event Time Altitude Azimuth Distance (km) Brightness Sun altitude
Exits shadow 23:56:47 14° 215° (SW) 2,185 7.0 -19.2°
Maximum altitude 00:00:26 27° 266° (W) 1,583 6.8 -19.4°
Drops below altitude 10° 00:05:06 10° 323° (NW) 2,499 8.7 -19.7°
Sets 00:07:52 0° 336° (NNW) 3,443 10.0 -19.9°
